Time,TemperatureF,DewpointF,PressureIn,WindDirection,WindDirectionDegrees,WindSpeedMPH,WindSpeedGustMPH,Humidity,HourlyPrecipIn,Conditions,Clouds,dailyrainin,SoftwareType,DateUTC
2013-03-10 00:06:00,29.8,14.3,29.78,North,-999,-999.0,0.0,52,0.00,,,0.00,LWC V2.10 B1813,2013-03-10 07:06:00,
2013-03-10 00:11:00,28.9,13.5,29.77,NE,45,0.0,0.0,52,0.00,,,0.00,LWC V2.10 B1813,2013-03-10 07:11:00,
2013-03-10 00:16:00,28.9,13.5,29.78,NE,45,0.0,0.0,52,0.00,,,0.00,LWC V2.10 B1813,2013-03-10 07:16:00,
2013-03-10 00:21:00,28.9,13.5,29.77,NE,45,0.0,0.0,52,0.00,,,0.00,LWC V2.10 B1813,2013-03-10 07:21:00,
2013-03-10 00:26:00,28.9,13.5,29.77,NE,45,0.0,0.0,52,0.00,,,0.00,LWC V2.10 B1813,2013-03-10 07:26:00,
2013-03-10 00:31:00,28.8,13.4,29.77,NE,45,0.0,0.0,52,0.00,,,0.00,LWC V2.10 B1813,2013-03-10 07:31:00,
2013-03-10 00:36:00,28.8,13.8,29.77,NE,45,0.0,0.0,52,0.00,,,0.00,LWC V2.10 B1813,2013-03-10 07:36:00,
2013-03-10 00:41:00,28.6,13.6,29.77,NE,45,0.0,0.0,53,0.00,,,0.00,LWC V2.10 B1813,2013-03-10 07:41:00,
2013-03-10 00:46:00,28.6,13.6,29.77,NE,45,0.0,0.0,53,0.00,,,0.00,LWC V2.10 B1813,2013-03-10 07:46:00,
2013-03-10 00:51:00,28.2,13.3,29.78,NE,45,0.0,0.0,53,0.00,,,0.00,LWC V2.10 B1813,2013-03-10 07:51:00,
2013-03-10 00:56:00,28.0,13.5,29.78,NE,45,0.0,0.0,54,0.00,,,0.00,LWC V2.10 B1813,2013-03-10 07:56:00,
2013-03-10 01:01:00,27.1,12.6,29.78,NE,45,0.0,0.0,54,0.00,,,0.00,LWC V2.10 B1813,2013-03-10 08:01:00,
2013-03-10 01:06:00,26.6,12.1,29.79,NE,45,0.0,0.0,54,0.00,,,0.00,LWC V2.10 B1813,2013-03-10 08:06:00,
2013-03-10 01:11:00,26.1,12.4,29.79,NE,45,0.0,0.0,56,0.00,,,0.00,LWC V2.10 B1813,2013-03-10 08:11:00,
2013-03-10 01:16:00,25.3,12.2,29.79,NE,45,0.0,0.0,57,0.00,,,0.00,LWC V2.10 B1813,2013-03-10 08:16:00,
2013-03-10 01:21:00,25.0,12.3,29.79,NE,45,0.0,0.0,58,0.00,,,0.00,LWC V2.10 B1813,2013-03-10 08:21:00,
2013-03-10 01:26:00,25.0,12.7,29.78,NE,45,0.0,0.0,59,0.00,,,0.00,LWC V2.10 B1813,2013-03-10 08:26:00,
2013-03-10 01:31:00,25.2,12.8,29.79,NE,45,0.0,0.0,59,0.00,,,0.00,LWC V2.10 B1813,2013-03-10 08:31:00,
2013-03-10 01:36:00,25.0,12.7,29.78,NE,45,0.0,0.0,59,0.00,,,0.00,LWC V2.10 B1813,2013-03-10 08:36:00,
2013-03-10 01:41:00,24.8,12.5,29.78,NE,45,0.0,0.0,59,0.00,,,0.00,LWC V2.10 B1813,2013-03-10 08:41:00,
2013-03-10 01:46:00,24.6,12.7,29.78,NE,45,0.0,0.0,60,0.00,,,0.00,LWC V2.10 B1813,2013-03-10 08:46:00,
2013-03-10 01:51:00,24.4,12.6,29.79,NE,45,0.0,0.0,60,0.00,,,0.00,LWC V2.10 B1813,2013-03-10 08:51:00,
2013-03-10 01:56:00,24.3,12.4,29.78,NE,45,0.0,0.0,60,0.00,,,0.00,LWC V2.10 B1813,2013-03-10 08:56:00,
2013-03-10 03:04:00,24.1,12.5,29.78,NE,45,0.0,0.0,61,0.00,,,0.02,LWC V2.10 B1813,2013-03-10 09:04:00,
2013-03-10 03:09:00,23.5,12.4,29.78,NE,45,0.0,0.0,62,0.00,,,0.02,LWC V2.10 B1813,2013-03-10 09:09:00,
2013-03-10 03:14:00,23.5,12.4,29.78,NE,45,0.0,0.0,62,0.00,,,0.02,LWC V2.10 B1813,2013-03-10 09:14:00,
2013-03-10 03:19:00,23.2,12.0,29.78,NE,45,0.0,0.0,62,0.00,,,0.02,LWC V2.10 B1813,2013-03-10 09:19:00,
2013-03-10 03:24:00,23.0,12.2,29.78,NE,45,0.0,0.0,63,0.00,,,0.02,LWC V2.10 B1813,2013-03-10 09:24:00,
2013-03-10 03:29:00,22.8,12.0,29.77,NE,45,0.0,0.0,63,0.00,,,0.02,LWC V2.10 B1813,2013-03-10 09:29:00,
2013-03-10 03:34:00,22.3,11.9,29.77,NE,45,0.0,0.0,64,0.00,,,0.02,LWC V2.10 B1813,2013-03-10 09:34:00,
2013-03-10 03:39:00,22.3,11.9,29.77,NE,45,0.0,0.0,64,0.00,,,0.02,LWC V2.10 B1813,2013-03-10 09:39:00,
2013-03-10 03:44:00,22.1,11.7,29.77,NE,45,0.0,0.0,64,0.00,,,0.02,LWC V2.10 B1813,2013-03-10 09:44:00,
2013-03-10 03:49:00,22.1,11.7,29.77,NE,45,0.0,0.0,64,0.00,,,0.02,LWC V2.10 B1813,2013-03-10 09:49:00,
2013-03-10 03:54:00,22.3,11.9,29.78,NE,45,0.0,0.0,64,0.00,,,0.02,LWC V2.10 B1813,2013-03-10 09:54:00,
2013-03-10 03:59:00,22.5,12.0,29.78,NE,45,0.0,0.0,64,0.00,,,0.02,LWC V2.10 B1813,2013-03-10 09:59:00,
2013-03-10 04:04:00,22.3,11.9,29.78,NE,45,0.0,0.0,64,0.00,,,0.02,LWC V2.10 B1813,2013-03-10 10:04:00,
2013-03-10 04:09:00,22.5,12.0,29.78,NE,45,0.0,0.0,64,0.00,,,0.02,LWC V2.10 B1813,2013-03-10 10:09:00,
2013-03-10 04:14:00,22.3,11.9,29.78,NE,45,0.0,0.0,64,0.00,,,0.02,LWC V2.10 B1813,2013-03-10 10:14:00,
2013-03-10 04:19:00,21.9,11.5,29.78,NE,45,0.0,0.0,64,0.00,,,0.02,LWC V2.10 B1813,2013-03-10 10:19:00,
2013-03-10 04:24:00,21.9,11.5,29.78,NE,45,0.0,0.0,64,0.00,,,0.02,LWC V2.10 B1813,2013-03-10 10:24:00,
2013-03-10 04:29:00,21.6,11.2,29.78,NE,45,0.0,0.0,64,0.00,,,0.02,LWC V2.10 B1813,2013-03-10 10:29:00,
2013-03-10 04:34:00,21.4,11.4,29.78,NE,45,0.0,0.0,65,0.00,,,0.02,LWC V2.10 B1813,2013-03-10 10:34:00,
2013-03-10 04:39:00,21.0,11.0,29.78,NE,45,0.0,0.0,65,0.00,,,0.02,LWC V2.10 B1813,2013-03-10 10:39:00,
2013-03-10 04:44:00,20.8,10.9,29.79,NE,45,0.0,0.0,65,0.00,,,0.02,LWC V2.10 B1813,2013-03-10 10:44:00,
2013-03-10 04:49:00,20.5,10.5,29.80,NE,45,0.0,0.0,65,0.00,,,0.02,LWC V2.10 B1813,2013-03-10 10:49:00,
2013-03-10 04:54:00,20.3,10.7,29.80,NE,45,0.0,0.0,66,0.00,,,0.02,LWC V2.10 B1813,2013-03-10 10:54:00,
2013-03-10 04:59:00,19.9,10.3,29.79,NE,45,0.0,0.0,66,0.00,,,0.02,LWC V2.10 B1813,2013-03-10 10:59:00,
2013-03-10 05:04:00,19.6,10.3,29.79,NE,45,0.0,0.0,67,0.00,,,0.02,LWC V2.10 B1813,2013-03-10 11:04:00,
2013-03-10 05:09:00,19.6,10.3,29.79,NE,45,0.0,0.0,67,0.00,,,0.02,LWC V2.10 B1813,2013-03-10 11:09:00,
2013-03-10 05:14:00,19.2,9.9,29.79,NE,45,0.0,0.0,67,0.00,,,0.02,LWC V2.10 B1813,2013-03-10 11:14:00,
2013-03-10 05:19:00,19.2,9.9,29.80,NE,45,0.0,0.0,67,0.00,,,0.02,LWC V2.10 B1813,2013-03-10 11:19:00,
2013-03-10 05:24:00,19.2,9.9,29.80,NE,45,0.0,0.0,67,0.00,,,0.02,LWC V2.10 B1813,2013-03-10 11:24:00,
2013-03-10 05:29:00,19.2,10.3,29.80,NE,45,0.0,0.0,68,0.00,,,0.02,LWC V2.10 B1813,2013-03-10 11:29:00,
2013-03-10 05:34:00,19.0,10.1,29.80,NE,45,0.0,0.0,68,0.00,,,0.02,LWC V2.10 B1813,2013-03-10 11:34:00,
2013-03-10 05:39:00,19.0,9.8,29.80,NE,45,0.0,0.0,67,0.00,,,0.02,LWC V2.10 B1813,2013-03-10 11:39:00,
2013-03-10 05:44:00,19.0,9.8,29.80,NE,45,0.0,0.0,67,0.00,,,0.02,LWC V2.10 B1813,2013-03-10 11:44:00,
2013-03-10 05:49:00,18.9,9.6,29.80,NE,45,0.0,0.0,67,0.00,,,0.02,LWC V2.10 B1813,2013-03-10 11:49:00,
2013-03-10 05:54:00,18.7,9.8,29.80,NE,45,0.0,0.0,68,0.00,,,0.02,LWC V2.10 B1813,2013-03-10 11:54:00,
2013-03-10 05:59:00,18.3,9.5,29.80,NE,45,0.0,0.0,68,0.00,,,0.02,LWC V2.10 B1813,2013-03-10 11:59:00,
2013-03-10 06:04:00,18.3,9.5,29.80,NE,45,0.0,0.0,68,0.00,,,0.02,LWC V2.10 B1813,2013-03-10 12:04:00,
2013-03-10 06:09:00,18.3,9.5,29.80,NE,45,0.0,0.0,68,0.00,,,0.02,LWC V2.10 B1813,2013-03-10 12:09:00,
2013-03-10 06:14:00,18.3,9.5,29.80,NE,45,0.0,0.0,68,0.00,,,0.02,LWC V2.10 B1813,2013-03-10 12:14:00,
2013-03-10 06:19:00,18.1,9.3,29.81,NE,45,0.0,0.0,68,0.00,,,0.02,LWC V2.10 B1813,2013-03-10 12:19:00,
2013-03-10 06:24:00,18.0,9.1,29.81,NE,45,0.0,0.0,68,0.00,,,0.02,LWC V2.10 B1813,2013-03-10 12:24:00,
2013-03-10 06:29:00,18.0,9.1,29.80,NE,45,0.0,0.0,68,0.00,,,0.02,LWC V2.10 B1813,2013-03-10 12:29:00,
2013-03-10 06:34:00,18.0,9.1,29.81,NE,45,0.0,0.0,68,0.00,,,0.02,LWC V2.10 B1813,2013-03-10 12:34:00,
2013-03-10 06:39:00,17.8,9.0,29.80,NE,45,0.0,0.0,68,0.00,,,0.02,LWC V2.10 B1813,2013-03-10 12:39:00,
2013-03-10 06:44:00,17.4,8.6,29.80,NE,45,0.0,0.0,68,0.00,,,0.02,LWC V2.10 B1813,2013-03-10 12:44:00,
2013-03-10 06:49:00,17.2,8.5,29.80,NE,45,0.0,0.0,68,0.00,,,0.02,LWC V2.10 B1813,2013-03-10 12:49:00,
2013-03-10 06:54:00,16.9,8.4,29.80,NE,45,0.0,0.0,69,0.00,,,0.02,LWC V2.10 B1813,2013-03-10 12:54:00,
2013-03-10 06:59:00,17.2,8.8,29.81,NE,45,0.0,0.0,69,0.00,,,0.02,LWC V2.10 B1813,2013-03-10 12:59:00,
2013-03-10 07:04:00,17.2,8.8,29.81,NE,45,0.0,0.0,69,0.00,,,0.02,LWC V2.10 B1813,2013-03-10 13:04:00,
2013-03-10 07:09:00,17.4,9.0,29.80,NE,45,0.0,0.0,69,0.00,,,0.02,LWC V2.10 B1813,2013-03-10 13:09:00,
2013-03-10 07:14:00,17.4,8.8,29.81,NE,45,0.0,0.0,69,0.00,,,0.02,LWC V2.10 B1813,2013-03-10 13:14:00,
2013-03-10 07:19:00,17.2,8.8,29.80,NE,45,0.0,0.0,69,0.00,,,0.02,LWC V2.10 B1813,2013-03-10 13:19:00,
2013-03-10 07:24:00,17.2,8.8,29.81,NE,45,0.0,0.0,69,0.00,,,0.02,LWC V2.10 B1813,2013-03-10 13:24:00,
2013-03-10 07:29:00,17.2,8.8,29.81,NE,45,0.0,0.0,69,0.00,,,0.02,LWC V2.10 B1813,2013-03-10 13:29:00,
2013-03-10 07:34:00,17.2,9.1,29.80,NE,45,0.0,0.0,70,0.00,,,0.02,LWC V2.10 B1813,2013-03-10 13:34:00,
2013-03-10 07:39:00,17.4,9.3,29.81,NE,45,0.0,0.0,70,0.00,,,0.02,LWC V2.10 B1813,2013-03-10 13:39:00,
2013-03-10 07:44:00,17.8,9.3,29.81,NE,45,0.0,0.0,69,0.00,,,0.02,LWC V2.10 B1813,2013-03-10 13:44:00,
2013-03-10 07:49:00,17.8,9.3,29.81,NE,45,0.0,0.0,69,0.00,,,0.02,LWC V2.10 B1813,2013-03-10 13:49:00,
2013-03-10 07:54:00,18.0,9.5,29.81,NE,45,0.0,0.0,69,0.00,,,0.02,LWC V2.10 B1813,2013-03-10 13:54:00,
2013-03-10 07:59:00,18.3,9.8,29.81,NE,45,0.0,0.0,69,0.00,,,0.02,LWC V2.10 B1813,2013-03-10 13:59:00,
2013-03-10 08:04:00,18.7,9.8,29.81,NE,45,0.0,0.0,68,0.00,,,0.02,LWC V2.10 B1813,2013-03-10 14:04:00,
2013-03-10 08:09:00,18.9,10.3,29.81,NE,45,0.0,0.0,69,0.00,,,0.02,LWC V2.10 B1813,2013-03-10 14:09:00,
2013-03-10 08:14:00,19.2,10.3,29.81,NE,45,0.0,0.0,68,0.00,,,0.02,LWC V2.10 B1813,2013-03-10 14:14:00,
2013-03-10 08:19:00,19.6,10.6,29.81,NE,45,0.0,0.0,68,0.00,,,0.02,LWC V2.10 B1813,2013-03-10 14:19:00,
2013-03-10 08:24:00,19.8,10.5,29.81,NE,45,0.0,0.0,67,0.00,,,0.02,LWC V2.10 B1813,2013-03-10 14:24:00,
2013-03-10 08:29:00,20.5,11.2,29.81,NE,45,0.0,0.0,67,0.00,,,0.02,LWC V2.10 B1813,2013-03-10 14:29:00,
2013-03-10 08:34:00,21.0,11.7,29.81,NE,45,0.0,0.0,67,0.00,,,0.02,LWC V2.10 B1813,2013-03-10 14:34:00,
2013-03-10 08:40:00,21.6,11.9,29.81,NE,45,0.0,0.0,66,0.00,,,0.02,LWC V2.10 B1813,2013-03-10 14:40:00,
2013-03-10 08:45:00,21.9,12.2,29.82,NE,45,0.0,0.0,66,0.00,,,0.02,LWC V2.10 B1813,2013-03-10 14:45:00,
2013-03-10 08:50:00,22.6,12.6,29.81,NE,45,0.0,0.0,65,0.00,,,0.02,LWC V2.10 B1813,2013-03-10 14:50:00,
2013-03-10 08:55:00,23.9,13.8,29.81,NE,45,0.0,0.0,65,0.00,,,0.02,LWC V2.10 B1813,2013-03-10 14:55:00,
2013-03-10 09:00:00,25.7,14.8,29.81,NE,45,0.0,0.0,63,0.00,,,0.02,LWC V2.10 B1813,2013-03-10 15:00:00,
2013-03-10 09:05:00,27.3,15.6,29.81,NE,45,0.0,0.0,61,0.00,,,0.02,LWC V2.10 B1813,2013-03-10 15:05:00,
2013-03-10 09:10:00,29.7,17.1,29.81,NE,45,0.0,0.0,59,0.00,,,0.02,LWC V2.10 B1813,2013-03-10 15:10:00,
2013-03-10 09:15:00,30.7,17.7,29.81,NE,45,0.0,0.0,58,0.00,,,0.02,LWC V2.10 B1813,2013-03-10 15:15:00,
2013-03-10 09:20:00,31.6,18.1,29.81,NE,45,0.0,0.0,57,0.00,,,0.02,LWC V2.10 B1813,2013-03-10 15:20:00,
2013-03-10 09:25:00,33.4,19.3,29.81,NE,45,0.0,0.0,56,0.00,,,0.02,LWC V2.10 B1813,2013-03-10 15:25:00,
2013-03-10 09:30:00,34.2,19.6,29.81,NE,45,0.0,0.0,55,0.00,,,0.02,LWC V2.10 B1813,2013-03-10 15:30:00,
2013-03-10 09:35:00,34.3,19.3,29.81,NE,45,0.0,0.0,54,0.00,,,0.02,LWC V2.10 B1813,2013-03-10 15:35:00,
2013-03-10 09:40:00,34.5,19.1,29.80,NE,45,0.0,0.0,53,0.00,,,0.02,LWC V2.10 B1813,2013-03-10 15:40:00,
2013-03-10 09:45:00,34.7,19.3,29.80,NE,45,0.0,0.0,53,0.00,,,0.02,LWC V2.10 B1813,2013-03-10 15:45:00,
2013-03-10 09:50:00,35.2,19.4,29.80,NE,45,0.0,0.0,52,0.00,,,0.02,LWC V2.10 B1813,2013-03-10 15:50:00,
2013-03-10 09:55:00,36.9,20.4,29.80,NE,45,0.0,0.0,51,0.00,,,0.02,LWC V2.10 B1813,2013-03-10 15:55:00,
2013-03-10 10:00:00,37.4,20.5,29.80,NE,45,0.0,0.0,50,0.00,,,0.02,LWC V2.10 B1813,2013-03-10 16:00:00,
2013-03-10 10:05:00,37.8,20.3,29.80,NE,45,0.0,0.0,49,0.00,,,0.02,LWC V2.10 B1813,2013-03-10 16:05:00,
2013-03-10 10:10:00,38.8,20.2,29.81,NE,45,0.0,0.0,47,0.00,,,0.02,LWC V2.10 B1813,2013-03-10 16:10:00,
2013-03-10 10:15:00,38.8,19.7,29.81,NE,45,0.0,0.0,46,0.00,,,0.02,LWC V2.10 B1813,2013-03-10 16:15:00,
2013-03-10 10:20:00,39.0,19.9,29.81,NE,45,0.0,0.0,46,0.00,,,0.02,LWC V2.10 B1813,2013-03-10 16:20:00,
2013-03-10 10:25:00,40.1,20.3,29.81,NE,45,0.0,0.0,45,0.00,,,0.02,LWC V2.10 B1813,2013-03-10 16:25:00,
2013-03-10 10:30:00,39.6,19.3,29.81,ENE,67,0.0,0.0,44,0.00,,,0.02,LWC V2.10 B1813,2013-03-10 16:30:00,
2013-03-10 10:35:00,38.3,18.7,29.80,ENE,67,0.0,0.0,45,0.00,,,0.02,LWC V2.10 B1813,2013-03-10 16:35:00,
2013-03-10 10:40:00,38.5,19.4,29.80,SE,135,0.0,0.0,46,0.00,,,0.02,LWC V2.10 B1813,2013-03-10 16:40:00,
2013-03-10 10:45:00,38.5,18.8,29.80,NE,45,0.0,0.0,45,0.00,,,0.02,LWC V2.10 B1813,2013-03-10 16:45:00,
2013-03-10 10:50:00,39.0,19.7,29.80,NE,45,0.0,0.0,46,0.00,,,0.02,LWC V2.10 B1813,2013-03-10 16:50:00,
2013-03-10 10:55:00,39.0,19.3,29.81,NE,45,0.0,0.0,45,0.00,,,0.02,LWC V2.10 B1813,2013-03-10 16:55:00,
2013-03-10 11:00:00,39.0,19.3,29.80,NE,45,0.0,0.0,45,0.00,,,0.02,LWC V2.10 B1813,2013-03-10 17:00:00,
2013-03-10 11:05:00,39.9,19.7,29.79,NE,45,0.0,0.0,45,0.00,,,0.02,LWC V2.10 B1813,2013-03-10 17:05:00,
2013-03-10 11:10:00,39.0,18.3,29.79,NE,45,0.0,0.0,43,0.00,,,0.02,LWC V2.10 B1813,2013-03-10 17:10:00,
2013-03-10 11:15:00,38.3,18.7,29.79,NE,45,0.0,0.0,45,0.00,,,0.02,LWC V2.10 B1813,2013-03-10 17:15:00,
2013-03-10 11:20:00,39.7,19.8,29.79,ESE,112,0.0,0.0,44,0.00,,,0.02,LWC V2.10 B1813,2013-03-10 17:20:00,
2013-03-10 11:25:00,41.4,20.4,29.79,ESE,112,0.0,0.0,43,0.00,,,0.02,LWC V2.10 B1813,2013-03-10 17:25:00,
2013-03-10 11:30:00,42.4,20.9,29.79,ESE,112,0.0,0.0,42,0.00,,,0.02,LWC V2.10 B1813,2013-03-10 17:30:00,
2013-03-10 11:35:00,42.1,20.5,29.79,SE,135,0.0,0.0,41,0.00,,,0.02,LWC V2.10 B1813,2013-03-10 17:35:00,
2013-03-10 11:40:00,43.7,20.9,29.79,SE,135,0.0,0.0,40,0.00,,,0.02,LWC V2.10 B1813,2013-03-10 17:40:00,
2013-03-10 11:45:00,44.2,22.0,29.79,SSE,157,0.0,0.0,41,0.00,,,0.02,LWC V2.10 B1813,2013-03-10 17:45:00,
2013-03-10 11:50:00,44.2,21.4,29.79,SSE,157,0.0,0.0,40,0.00,,,0.02,LWC V2.10 B1813,2013-03-10 17:50:00,
2013-03-10 11:55:00,44.8,21.9,29.79,SE,135,0.0,0.0,40,0.00,,,0.02,LWC V2.10 B1813,2013-03-10 17:55:00,
2013-03-10 12:00:00,45.1,20.9,29.80,SE,135,0.0,0.0,38,0.00,,,0.02,LWC V2.10 B1813,2013-03-10 18:00:00,
2013-03-10 12:05:00,44.6,21.1,29.79,SE,135,0.0,0.0,39,0.00,,,0.02,LWC V2.10 B1813,2013-03-10 18:05:00,
2013-03-10 12:10:00,44.6,21.1,29.79,SSE,157,0.0,0.0,39,0.00,,,0.02,LWC V2.10 B1813,2013-03-10 18:10:00,
2013-03-10 12:15:00,44.6,21.1,29.78,SSE,157,0.0,0.0,39,0.00,,,0.02,LWC V2.10 B1813,2013-03-10 18:15:00,
2013-03-10 12:20:00,44.8,21.2,29.78,SE,135,0.0,0.0,39,0.00,,,0.02,LWC V2.10 B1813,2013-03-10 18:20:00,
2013-03-10 12:25:00,45.1,21.6,29.77,SE,135,0.0,0.0,39,0.00,,,0.02,LWC V2.10 B1813,2013-03-10 18:25:00,
2013-03-10 12:30:00,45.3,20.4,29.78,SSE,157,0.0,0.0,37,0.00,,,0.02,LWC V2.10 B1813,2013-03-10 18:30:00,
2013-03-10 12:35:00,45.5,19.9,29.78,SE,135,0.0,0.0,36,0.00,,,0.02,LWC V2.10 B1813,2013-03-10 18:35:00,
2013-03-10 12:40:00,45.7,19.4,29.78,SE,135,0.0,0.0,35,0.00,,,0.02,LWC V2.10 B1813,2013-03-10 18:40:00,
2013-03-10 12:45:00,46.0,19.7,29.78,South,180,0.0,0.0,35,0.00,,,0.02,LWC V2.10 B1813,2013-03-10 18:45:00,
2013-03-10 12:50:00,46.6,21.5,29.78,ESE,112,0.0,0.0,37,0.00,,,0.02,LWC V2.10 B1813,2013-03-10 18:50:00,
2013-03-10 12:55:00,46.0,21.7,29.78,SSE,157,0.0,0.0,38,0.00,,,0.02,LWC V2.10 B1813,2013-03-10 18:55:00,
2013-03-10 13:00:00,46.2,22.5,29.77,SE,135,0.0,0.0,39,0.00,,,0.02,LWC V2.10 B1813,2013-03-10 19:00:00,
2013-03-10 13:05:00,46.2,21.9,29.77,ENE,67,0.0,0.0,38,0.00,,,0.02,LWC V2.10 B1813,2013-03-10 19:05:00,
2013-03-10 13:10:00,46.6,21.5,29.77,SSE,157,0.0,0.0,37,0.00,,,0.02,LWC V2.10 B1813,2013-03-10 19:10:00,
2013-03-10 13:15:00,46.8,21.7,29.77,SE,135,0.0,0.0,37,0.00,,,0.02,LWC V2.10 B1813,2013-03-10 19:15:00,
2013-03-10 13:20:00,46.4,20.7,29.77,SE,135,0.0,0.0,36,0.00,,,0.02,LWC V2.10 B1813,2013-03-10 19:20:00,
2013-03-10 13:25:00,46.6,21.5,29.77,SE,135,0.0,0.0,37,0.00,,,0.02,LWC V2.10 B1813,2013-03-10 19:25:00,
2013-03-10 13:30:00,47.1,22.0,29.77,South,180,0.0,0.0,37,0.00,,,0.02,LWC V2.10 B1813,2013-03-10 19:30:00,
2013-03-10 13:35:00,46.9,21.2,29.77,South,180,0.0,0.0,36,0.00,,,0.02,LWC V2.10 B1813,2013-03-10 19:35:00,
2013-03-10 13:40:00,47.5,21.7,29.77,WSW,247,0.0,0.0,36,0.00,,,0.02,LWC V2.10 B1813,2013-03-10 19:40:00,
2013-03-10 13:45:00,48.0,22.2,29.77,South,180,0.0,0.0,36,0.00,,,0.02,LWC V2.10 B1813,2013-03-10 19:45:00,
2013-03-10 13:50:00,48.0,22.2,29.76,ESE,112,0.0,0.0,36,0.00,,,0.02,LWC V2.10 B1813,2013-03-10 19:50:00,
2013-03-10 13:55:00,48.0,21.5,29.76,East,90,0.0,0.0,35,0.00,,,0.02,LWC V2.10 B1813,2013-03-10 19:55:00,
2013-03-10 14:00:00,47.7,21.8,29.76,SSW,202,0.0,0.0,36,0.00,,,0.02,LWC V2.10 B1813,2013-03-10 20:00:00,
2013-03-10 14:05:00,48.4,22.5,29.76,SSE,157,0.0,0.0,36,0.00,,,0.02,LWC V2.10 B1813,2013-03-10 20:05:00,
2013-03-10 14:10:00,48.9,22.9,29.76,SE,135,0.0,0.0,36,0.00,,,0.02,LWC V2.10 B1813,2013-03-10 20:10:00,
2013-03-10 14:15:00,49.3,23.2,29.76,SSE,157,0.0,0.0,36,0.00,,,0.02,LWC V2.10 B1813,2013-03-10 20:15:00,
2013-03-10 14:20:00,49.3,23.2,29.76,South,180,0.0,0.0,36,0.00,,,0.02,LWC V2.10 B1813,2013-03-10 20:20:00,
2013-03-10 14:25:00,49.3,23.2,29.76,SSE,157,0.0,0.0,36,0.00,,,0.02,LWC V2.10 B1813,2013-03-10 20:25:00,
2013-03-10 14:30:00,50.4,24.2,29.76,South,180,0.0,0.0,36,0.00,,,0.02,LWC V2.10 B1813,2013-03-10 20:30:00,
2013-03-10 14:35:00,50.5,23.7,29.76,SSE,157,0.0,0.0,35,0.00,,,0.02,LWC V2.10 B1813,2013-03-10 20:35:00,
2013-03-10 14:40:00,50.4,24.2,29.75,SSE,157,0.0,0.0,36,0.00,,,0.02,LWC V2.10 B1813,2013-03-10 20:40:00,
2013-03-10 14:45:00,49.8,23.0,29.75,South,180,0.0,0.0,35,0.00,,,0.02,LWC V2.10 B1813,2013-03-10 20:45:00,
2013-03-10 14:50:00,50.5,23.7,29.75,ENE,67,0.0,0.0,35,0.00,,,0.02,LWC V2.10 B1813,2013-03-10 20:50:00,
2013-03-10 14:55:00,50.7,24.5,29.76,SE,135,0.0,0.0,36,0.00,,,0.02,LWC V2.10 B1813,2013-03-10 20:55:00,
2013-03-10 15:00:00,50.5,23.7,29.76,SSE,157,0.0,0.0,35,0.00,,,0.02,LWC V2.10 B1813,2013-03-10 21:00:00,
2013-03-10 15:05:00,50.5,24.4,29.75,South,180,0.0,0.0,36,0.00,,,0.02,LWC V2.10 B1813,2013-03-10 21:05:00,
2013-03-10 15:10:00,50.9,23.3,29.76,SW,225,0.0,0.0,34,0.00,,,0.02,LWC V2.10 B1813,2013-03-10 21:10:00,
2013-03-10 15:15:00,51.3,22.9,29.75,SW,225,0.0,0.0,33,0.00,,,0.02,LWC V2.10 B1813,2013-03-10 21:15:00,
2013-03-10 15:20:00,50.7,23.1,29.76,WSW,247,0.0,0.0,34,0.00,,,0.02,LWC V2.10 B1813,2013-03-10 21:20:00,
2013-03-10 15:25:00,50.7,22.5,29.76,ENE,67,0.0,0.0,33,0.00,,,0.02,LWC V2.10 B1813,2013-03-10 21:25:00,
2013-03-10 15:30:00,49.8,23.0,29.76,South,180,0.0,0.0,35,0.00,,,0.02,LWC V2.10 B1813,2013-03-10 21:30:00,
2013-03-10 15:35:00,49.6,22.9,29.76,WSW,247,0.0,0.0,35,0.00,,,0.02,LWC V2.10 B1813,2013-03-10 21:35:00,
2013-03-10 15:40:00,49.6,23.5,29.76,SSE,157,0.0,0.0,36,0.00,,,0.02,LWC V2.10 B1813,2013-03-10 21:40:00,
2013-03-10 15:45:00,48.7,23.1,29.76,South,180,0.0,0.0,36,0.00,,,0.02,LWC V2.10 B1813,2013-03-10 21:45:00,
2013-03-10 15:50:00,47.1,21.3,29.76,SSE,157,0.0,0.0,36,0.00,,,0.02,LWC V2.10 B1813,2013-03-10 21:50:00,
2013-03-10 15:55:00,46.9,22.5,29.77,South,180,0.0,0.0,38,0.00,,,0.02,LWC V2.10 B1813,2013-03-10 21:55:00,
2013-03-10 16:00:00,47.3,22.8,29.77,SSE,157,0.0,0.0,38,0.00,,,0.02,LWC V2.10 B1813,2013-03-10 22:00:00,
2013-03-10 16:05:00,48.0,23.5,29.77,WSW,247,0.0,0.0,38,0.00,,,0.02,LWC V2.10 B1813,2013-03-10 22:05:00,
2013-03-10 16:10:00,48.9,24.3,29.77,WSW,247,0.0,0.0,38,0.00,,,0.02,LWC V2.10 B1813,2013-03-10 22:10:00,
2013-03-10 16:15:00,49.8,23.7,29.76,WSW,247,0.0,0.0,36,0.00,,,0.02,LWC V2.10 B1813,2013-03-10 22:15:00,
2013-03-10 16:20:00,50.2,23.3,29.77,WSW,247,0.0,0.0,35,0.00,,,0.02,LWC V2.10 B1813,2013-03-10 22:20:00,
2013-03-10 16:25:00,51.1,23.5,29.76,WSW,247,0.0,0.0,34,0.00,,,0.02,LWC V2.10 B1813,2013-03-10 22:25:00,
2013-03-10 16:30:00,51.1,23.5,29.76,WSW,247,0.0,0.0,35,0.00,,,0.02,LWC V2.10 B1813,2013-03-10 22:30:00,
2013-03-10 16:35:00,50.4,22.8,29.76,WSW,247,0.0,0.0,34,0.00,,,0.02,LWC V2.10 B1813,2013-03-10 22:35:00,
2013-03-10 16:40:00,49.8,21.6,29.76,WSW,247,0.0,0.0,33,0.00,,,0.02,LWC V2.10 B1813,2013-03-10 22:40:00,
2013-03-10 16:45:00,49.5,22.7,29.76,WSW,247,0.0,0.0,35,0.00,,,0.02,LWC V2.10 B1813,2013-03-10 22:45:00,
2013-03-10 16:50:00,49.3,22.6,29.76,WSW,247,0.0,0.0,35,0.00,,,0.02,LWC V2.10 B1813,2013-03-10 22:50:00,
2013-03-10 16:55:00,48.7,22.1,29.76,WSW,247,0.0,0.0,35,0.00,,,0.02,LWC V2.10 B1813,2013-03-10 22:55:00,
2013-03-10 17:00:00,48.9,22.3,29.76,WSW,247,0.0,0.0,35,0.00,,,0.02,LWC V2.10 B1813,2013-03-10 23:00:00,
2013-03-10 17:05:00,49.1,22.4,29.76,WSW,247,0.0,0.0,35,0.00,,,0.02,LWC V2.10 B1813,2013-03-10 23:05:00,
2013-03-10 17:10:00,49.3,22.6,29.76,WSW,247,0.0,0.0,35,0.00,,,0.02,LWC V2.10 B1813,2013-03-10 23:10:00,
2013-03-10 17:15:00,48.7,22.1,29.76,WSW,247,0.0,0.0,35,0.00,,,0.02,LWC V2.10 B1813,2013-03-10 23:15:00,
2013-03-10 17:20:00,48.9,22.3,29.76,WSW,247,0.0,0.0,35,0.00,,,0.02,LWC V2.10 B1813,2013-03-10 23:20:00,
2013-03-10 17:25:00,48.7,23.5,29.76,WSW,247,0.0,0.0,37,0.00,,,0.02,LWC V2.10 B1813,2013-03-10 23:25:00,
2013-03-10 17:30:00,48.4,23.5,29.76,WSW,247,0.0,0.0,37,0.00,,,0.02,LWC V2.10 B1813,2013-03-10 23:30:00,
2013-03-10 17:35:00,48.4,22.5,29.76,WSW,247,0.0,0.0,36,0.00,,,0.02,LWC V2.10 B1813,2013-03-10 23:35:00,
2013-03-10 17:40:00,48.6,22.6,29.76,WSW,247,0.0,0.0,36,0.00,,,0.02,LWC V2.10 B1813,2013-03-10 23:40:00,
2013-03-10 17:45:00,47.5,21.7,29.76,WSW,247,0.0,0.0,36,0.00,,,0.02,LWC V2.10 B1813,2013-03-10 23:45:00,
2013-03-10 17:50:00,47.5,22.3,29.75,WSW,247,0.0,0.0,37,0.00,,,0.02,LWC V2.10 B1813,2013-03-10 23:50:00,
2013-03-10 17:55:00,47.1,22.0,29.76,WSW,247,0.0,0.0,37,0.00,,,0.02,LWC V2.10 B1813,2013-03-10 23:55:00,
2013-03-10 18:00:00,47.3,22.8,29.75,WSW,247,0.0,0.0,38,0.00,,,0.02,LWC V2.10 B1813,2013-03-11 00:00:00,
2013-03-10 18:05:00,47.1,22.7,29.76,WSW,247,0.0,0.0,38,0.00,,,0.02,LWC V2.10 B1813,2013-03-11 00:05:00,
2013-03-10 18:10:00,46.8,22.4,29.76,WSW,247,0.0,0.0,38,0.00,,,0.02,LWC V2.10 B1813,2013-03-11 00:10:00,
2013-03-10 18:15:00,46.0,22.0,29.76,SE,135,0.0,0.0,39,0.00,,,0.02,LWC V2.10 B1813,2013-03-11 00:15:00,
2013-03-10 18:20:00,45.1,22.2,29.76,SE,135,0.0,0.0,40,0.00,,,0.02,LWC V2.10 B1813,2013-03-11 00:20:00,
2013-03-10 18:25:00,44.2,22.0,29.76,SE,135,0.0,0.0,41,0.00,,,0.02,LWC V2.10 B1813,2013-03-11 00:25:00,
2013-03-10 18:30:00,43.7,21.5,29.76,SE,135,0.0,0.0,41,0.00,,,0.02,LWC V2.10 B1813,2013-03-11 00:30:00,
2013-03-10 18:35:00,43.2,22.1,29.76,SE,135,0.0,0.0,43,0.00,,,0.02,LWC V2.10 B1813,2013-03-11 00:35:00,
2013-03-10 18:40:00,42.6,21.6,29.76,SE,135,0.0,0.0,43,0.00,,,0.02,LWC V2.10 B1813,2013-03-11 00:40:00,
2013-03-10 18:45:00,41.7,21.6,29.76,SE,135,0.0,0.0,45,0.00,,,0.02,LWC V2.10 B1813,2013-03-11 00:45:00,
2013-03-10 18:50:00,41.4,22.0,29.76,South,180,0.0,0.0,46,0.00,,,0.02,LWC V2.10 B1813,2013-03-11 00:50:00,
2013-03-10 18:55:00,40.8,21.5,29.76,South,180,0.0,0.0,46,0.00,,,0.02,LWC V2.10 B1813,2013-03-11 00:55:00,
2013-03-10 19:00:00,40.6,21.8,29.76,ENE,67,0.0,0.0,47,0.00,,,0.02,LWC V2.10 B1813,2013-03-11 01:00:00,
2013-03-10 19:05:00,39.9,21.2,29.76,ENE,67,0.0,0.0,47,0.00,,,0.02,LWC V2.10 B1813,2013-03-11 01:05:00,
2013-03-10 19:10:00,39.6,20.9,29.76,SW,225,0.0,0.0,47,0.00,,,0.02,LWC V2.10 B1813,2013-03-11 01:10:00,
2013-03-10 19:15:00,38.8,21.3,29.76,SW,225,0.0,0.0,49,0.00,,,0.02,LWC V2.10 B1813,2013-03-11 01:15:00,
2013-03-10 19:20:00,38.5,20.9,29.76,SW,225,0.0,0.0,49,0.00,,,0.02,LWC V2.10 B1813,2013-03-11 01:20:00,
2013-03-10 19:25:00,37.9,21.0,29.76,SW,225,0.0,0.0,50,0.00,,,0.02,LWC V2.10 B1813,2013-03-11 01:25:00,
2013-03-10 19:30:00,37.2,21.2,29.76,SW,225,0.0,0.0,52,0.00,,,0.02,LWC V2.10 B1813,2013-03-11 01:30:00,
2013-03-10 19:35:00,37.0,21.0,29.76,SW,225,0.0,0.0,52,0.00,,,0.02,LWC V2.10 B1813,2013-03-11 01:35:00,
2013-03-10 19:40:00,36.3,20.4,29.76,SW,225,0.0,0.0,52,0.00,,,0.02,LWC V2.10 B1813,2013-03-11 01:40:00,
2013-03-10 19:45:00,36.0,20.6,29.76,SW,225,0.0,0.0,54,0.00,,,0.02,LWC V2.10 B1813,2013-03-11 01:45:00,
2013-03-10 19:50:00,35.8,20.8,29.76,SSW,202,0.0,0.0,54,0.00,,,0.02,LWC V2.10 B1813,2013-03-11 01:50:00,
2013-03-10 19:55:00,35.4,20.4,29.76,SSW,202,0.0,0.0,54,0.00,,,0.02,LWC V2.10 B1813,2013-03-11 01:55:00,
2013-03-10 20:00:00,35.2,20.7,29.76,WNW,292,0.0,0.0,55,0.00,,,0.02,LWC V2.10 B1813,2013-03-11 02:00:00,
2013-03-10 20:05:00,34.9,20.3,29.76,WNW,292,0.0,0.0,55,0.00,,,0.02,LWC V2.10 B1813,2013-03-11 02:05:00,
2013-03-10 20:10:00,34.3,19.8,29.76,WNW,292,0.0,0.0,55,0.00,,,0.02,LWC V2.10 B1813,2013-03-11 02:10:00,
2013-03-10 20:15:00,34.2,20.0,29.76,WNW,292,0.0,0.0,56,0.00,,,0.02,LWC V2.10 B1813,2013-03-11 02:15:00,
2013-03-10 20:20:00,33.8,20.1,29.77,WNW,292,0.0,0.0,57,0.00,,,0.02,LWC V2.10 B1813,2013-03-11 02:20:00,
2013-03-10 20:25:00,33.4,19.8,29.76,West,270,0.0,0.0,57,0.00,,,0.02,LWC V2.10 B1813,2013-03-11 02:25:00,
2013-03-10 20:30:00,33.4,20.6,29.76,West,270,0.0,0.0,59,0.00,,,0.02,LWC V2.10 B1813,2013-03-11 02:30:00,
2013-03-10 20:35:00,33.4,20.6,29.76,West,270,0.0,0.0,59,0.00,,,0.02,LWC V2.10 B1813,2013-03-11 02:35:00,
2013-03-10 20:40:00,33.1,19.9,29.76,West,270,0.0,0.0,58,0.00,,,0.02,LWC V2.10 B1813,2013-03-11 02:40:00,
2013-03-10 20:45:00,32.9,19.7,29.76,West,270,0.0,0.0,58,0.00,,,0.02,LWC V2.10 B1813,2013-03-11 02:45:00,
2013-03-10 20:50:00,32.9,20.1,29.76,West,270,0.0,0.0,59,0.00,,,0.02,LWC V2.10 B1813,2013-03-11 02:50:00,
2013-03-10 20:55:00,32.7,20.0,29.75,NW,315,0.0,0.0,59,0.00,,,0.02,LWC V2.10 B1813,2013-03-11 02:55:00,
2013-03-10 21:00:00,32.7,20.0,29.75,NW,315,0.0,0.0,59,0.00,,,0.02,LWC V2.10 B1813,2013-03-11 03:00:00,
2013-03-10 21:05:00,32.5,20.2,29.75,NW,315,0.0,0.0,60,0.00,,,0.02,LWC V2.10 B1813,2013-03-11 03:05:00,
2013-03-10 21:10:00,32.2,19.9,29.76,NW,315,0.0,0.0,60,0.00,,,0.02,LWC V2.10 B1813,2013-03-11 03:10:00,
2013-03-10 21:16:00,32.2,20.3,29.75,West,270,0.0,0.0,61,0.00,,,0.02,LWC V2.10 B1813,2013-03-11 03:16:00,
2013-03-10 21:21:00,31.8,19.9,29.75,West,270,0.0,0.0,61,0.00,,,0.02,LWC V2.10 B1813,2013-03-11 03:21:00,
2013-03-10 21:26:00,31.8,19.9,29.75,West,270,0.0,0.0,61,0.00,,,0.02,LWC V2.10 B1813,2013-03-11 03:26:00,
2013-03-10 21:31:00,31.8,20.3,29.75,West,270,0.0,0.0,62,0.00,,,0.02,LWC V2.10 B1813,2013-03-11 03:31:00,
2013-03-10 21:36:00,31.6,19.8,29.75,West,270,0.0,0.0,61,0.00,,,0.02,LWC V2.10 B1813,2013-03-11 03:36:00,
2013-03-10 21:41:00,31.6,20.1,29.75,West,270,0.0,0.0,62,0.00,,,0.02,LWC V2.10 B1813,2013-03-11 03:41:00,
2013-03-10 21:46:00,31.3,19.8,29.75,West,270,0.0,0.0,62,0.00,,,0.02,LWC V2.10 B1813,2013-03-11 03:46:00,
2013-03-10 21:51:00,30.9,19.4,29.76,West,270,0.0,0.0,62,0.00,,,0.02,LWC V2.10 B1813,2013-03-11 03:51:00,
2013-03-10 21:56:00,30.7,19.6,29.76,West,270,0.0,0.0,63,0.00,,,0.02,LWC V2.10 B1813,2013-03-11 03:56:00,
2013-03-10 22:00:00,30.7,19.6,29.76,West,270,0.0,0.0,63,0.00,,,0.02,LWC V2.10 B1813,2013-03-11 04:00:00,
2013-03-10 22:05:00,30.6,19.4,29.76,West,270,0.0,0.0,63,0.00,,,0.02,LWC V2.10 B1813,2013-03-11 04:05:00,
2013-03-10 22:10:00,30.7,19.6,29.76,West,270,0.0,0.0,63,0.00,,,0.02,LWC V2.10 B1813,2013-03-11 04:10:00,
2013-03-10 22:11:00,30.7,19.9,29.76,West,270,0.0,0.0,64,0.00,,,0.02,LWC V2.10 B1813,2013-03-11 04:11:00,
2013-03-10 22:18:00,30.4,19.6,29.75,West,270,0.0,0.0,64,0.00,,,0.02,LWC V2.10 B1813,2013-03-11 04:18:00,
2013-03-10 22:23:00,30.2,19.0,29.75,West,270,0.0,0.0,63,0.00,,,0.02,LWC V2.10 B1813,2013-03-11 04:23:00,
2013-03-10 22:28:00,30.0,19.2,29.75,West,270,0.0,0.0,64,0.00,,,0.02,LWC V2.10 B1813,2013-03-11 04:28:00,
2013-03-10 22:33:00,29.8,19.1,29.76,West,270,0.0,0.0,64,0.00,,,0.02,LWC V2.10 B1813,2013-03-11 04:33:00,
2013-03-10 22:38:00,29.5,19.1,29.74,West,270,0.0,0.0,65,0.00,,,0.02,LWC V2.10 B1813,2013-03-11 04:38:00,
2013-03-10 22:43:00,29.5,19.1,29.74,West,270,0.0,0.0,65,0.00,,,0.02,LWC V2.10 B1813,2013-03-11 04:43:00,
2013-03-10 22:48:00,29.5,19.5,29.74,West,270,0.0,0.0,66,0.00,,,0.02,LWC V2.10 B1813,2013-03-11 04:48:00,
2013-03-10 22:51:00,29.5,19.5,29.74,West,270,0.0,0.0,66,0.00,,,0.02,LWC V2.10 B1813,2013-03-11 04:51:00,
2013-03-10 22:56:00,29.5,19.5,29.74,West,270,0.0,0.0,66,0.00,,,0.02,LWC V2.10 B1813,2013-03-11 04:56:00,
2013-03-10 23:01:00,29.3,19.3,29.73,West,270,0.0,0.0,66,0.00,,,0.02,LWC V2.10 B1813,2013-03-11 05:01:00,
2013-03-10 23:06:00,29.1,19.1,29.73,West,270,0.0,0.0,66,0.00,,,0.02,LWC V2.10 B1813,2013-03-11 05:06:00,
2013-03-10 23:11:00,29.1,19.1,29.74,West,270,0.0,0.0,66,0.00,,,0.02,LWC V2.10 B1813,2013-03-11 05:11:00,
2013-03-10 23:16:00,29.1,19.1,29.73,West,270,0.0,0.0,66,0.00,,,0.02,LWC V2.10 B1813,2013-03-11 05:16:00,
2013-03-10 23:21:00,29.5,19.5,29.73,West,270,0.0,0.0,66,0.00,,,0.02,LWC V2.10 B1813,2013-03-11 05:21:00,
2013-03-10 23:26:00,29.1,19.1,29.73,West,270,0.0,0.0,66,0.00,,,0.02,LWC V2.10 B1813,2013-03-11 05:26:00,
2013-03-10 23:31:00,29.1,19.1,29.73,West,270,0.0,0.0,66,0.00,,,0.02,LWC V2.10 B1813,2013-03-11 05:31:00,
2013-03-10 23:36:00,28.6,18.8,29.73,West,270,0.0,0.0,66,0.00,,,0.02,LWC V2.10 B1813,2013-03-11 05:36:00,
2013-03-10 23:41:00,28.9,19.3,29.72,WNW,292,0.0,0.0,67,0.00,,,0.02,LWC V2.10 B1813,2013-03-11 05:41:00,
2013-03-10 23:46:00,29.3,19.3,29.72,WNW,292,0.0,0.0,66,0.00,,,0.02,LWC V2.10 B1813,2013-03-11 05:46:00,
2013-03-10 23:51:00,29.3,19.1,29.72,WNW,292,0.0,0.0,66,0.00,,,0.02,LWC V2.10 B1813,2013-03-11 05:51:00,
2013-03-10 23:56:00,28.9,19.0,29.72,WNW,292,0.0,0.0,66,0.00,,,0.02,LWC V2.10 B1813,2013-03-11 05:56:00,